Time,TemperatureF,DewpointF,PressureIn,WindDirection,WindDirectionDegrees,WindSpeedMPH,WindSpeedGustMPH,Humidity,HourlyPrecipIn,Conditions,Clouds,dailyrainin,SolarRadiationWatts/m^2,SoftwareType,DateUTC
2013-03-13 00:22:00,21.0,4.0,-100.00,North,355,1.0,8.0,46,0.00,,,0.00,0.000000,,2013-03-13 08:22:00,
2013-03-13 00:32:00,21.0,4.0,-100.00,North,355,1.0,8.0,46,0.00,,,0.00,0.000000,,2013-03-13 08:32:00,
2013-03-13 00:42:00,21.0,4.0,-100.00,North,355,1.0,8.0,46,0.00,,,0.00,0.000000,,2013-03-13 08:42:00,
2013-03-13 00:52:00,17.0,4.0,-100.00,North,10,1.0,6.0,57,0.00,,,0.00,0.000000,,2013-03-13 08:52:00,
2013-03-13 01:12:00,17.0,4.0,-100.00,North,10,1.0,6.0,57,0.00,,,0.00,0.000000,,2013-03-13 09:12:00,
2013-03-13 01:22:00,17.0,4.0,-100.00,North,10,1.0,6.0,57,0.00,,,0.00,0.000000,,2013-03-13 09:22:00,
2013-03-13 01:42:00,17.0,4.0,-100.00,North,10,1.0,6.0,57,0.00,,,0.00,0.000000,,2013-03-13 09:42:00,
2013-03-13 02:11:00,15.0,5.0,-100.00,North,2,2.0,4.0,64,0.00,,,0.00,0.000000,,2013-03-13 10:11:00,
2013-03-13 02:22:00,15.0,5.0,-100.00,North,2,2.0,4.0,64,0.00,,,0.00,0.000000,,2013-03-13 10:22:00,
2013-03-13 03:12:00,12.0,2.0,-100.00,ENE,62,1.0,7.0,63,0.00,,,0.00,0.000000,,2013-03-13 11:12:00,
2013-03-13 03:22:00,12.0,2.0,-100.00,ENE,62,1.0,7.0,63,0.00,,,0.00,0.000000,,2013-03-13 11:22:00,
2013-03-13 04:12:00,8.0,1.0,-100.00,ENE,65,0.0,3.0,74,-99.99,,,0.00,0.000000,,2013-03-13 12:12:00,
2013-03-13 04:22:00,8.0,1.0,-100.00,ENE,65,0.0,3.0,74,-99.99,,,0.00,0.000000,,2013-03-13 12:22:00,
2013-03-13 05:22:00,4.0,-1.0,-100.00,East,79,0.0,1.0,79,-99.99,,,-99.99,0.000000,,2013-03-13 13:22:00,
2013-03-13 06:12:00,2.0,-2.0,-100.00,ENE,77,0.0,1.0,83,-99.99,,,0.00,0.000000,,2013-03-13 14:12:00,
2013-03-13 06:21:00,2.0,-2.0,-100.00,ENE,77,0.0,1.0,83,-99.99,,,0.00,0.000000,,2013-03-13 14:21:00,
2013-03-13 07:12:00,0.0,-3.0,-100.00,East,91,0.0,1.0,87,-99.99,,,0.00,0.000000,,2013-03-13 15:12:00,
2013-03-13 08:22:00,0.0,-3.0,-100.00,ENE,77,0.0,1.0,89,-99.99,,,0.00,0.000000,,2013-03-13 16:22:00,
2013-03-13 09:12:00,1.0,-2.0,-100.00,ENE,67,1.0,6.0,85,-99.99,,,0.00,3.000000,,2013-03-13 17:12:00,
2013-03-13 09:22:00,1.0,-2.0,-100.00,ENE,67,1.0,6.0,85,-99.99,,,0.00,3.000000,,2013-03-13 17:22:00,
2013-03-13 10:22:00,7.0,3.0,-100.00,NE,53,1.0,4.0,84,-99.99,,,0.00,17.000000,,2013-03-13 18:22:00,
2013-03-13 10:52:00,20.0,3.0,-100.00,NNE,30,3.0,7.0,47,-99.99,,,0.00,32.000000,,2013-03-13 18:52:00,
2013-03-13 11:22:00,20.0,3.0,-100.00,NNE,30,3.0,7.0,47,-99.99,,,0.00,32.000000,,2013-03-13 19:22:00,
2013-03-13 11:32:00,20.0,3.0,-100.00,NNE,30,3.0,7.0,47,-99.99,,,0.00,32.000000,,2013-03-13 19:32:00,
2013-03-13 11:42:00,20.0,3.0,-100.00,NNE,30,3.0,7.0,47,-99.99,,,0.00,32.000000,,2013-03-13 19:42:00,
2013-03-13 11:52:00,26.0,-2.0,-100.00,North,350,3.0,9.0,29,0.00,,,0.00,205.000000,,2013-03-13 19:52:00,
2013-03-13 12:22:00,26.0,-2.0,-100.00,North,350,3.0,9.0,29,0.00,,,0.00,205.000000,,2013-03-13 20:22:00,
2013-03-13 12:32:00,26.0,-2.0,-100.00,North,350,3.0,9.0,29,0.00,,,0.00,205.000000,,2013-03-13 20:32:00,
2013-03-13 12:41:00,26.0,-2.0,-100.00,North,350,3.0,9.0,29,0.00,,,0.00,205.000000,,2013-03-13 20:41:00,
2013-03-13 13:12:00,26.0,0.0,-100.00,North,6,4.0,9.0,31,0.00,,,0.00,152.000000,,2013-03-13 21:12:00,
2013-03-13 13:22:00,26.0,0.0,-100.00,North,6,4.0,9.0,31,0.00,,,0.00,152.000000,,2013-03-13 21:22:00,
2013-03-13 13:32:00,26.0,0.0,-100.00,North,6,4.0,9.0,31,0.00,,,0.00,152.000000,,2013-03-13 21:32:00,
2013-03-13 13:42:00,26.0,0.0,-100.00,North,6,4.0,9.0,31,0.00,,,0.00,152.000000,,2013-03-13 21:42:00,
2013-03-13 13:51:00,26.0,0.0,-100.00,North,6,4.0,9.0,31,0.00,,,0.00,152.000000,,2013-03-13 21:51:00,
2013-03-13 13:52:00,29.0,0.0,-100.00,North,8,4.0,10.0,28,0.00,,,0.00,230.000000,,2013-03-13 21:52:00,
2013-03-13 14:22:00,29.0,0.0,-100.00,North,8,4.0,10.0,28,0.00,,,0.00,230.000000,,2013-03-13 22:22:00,
2013-03-13 14:32:00,29.0,0.0,-100.00,North,8,4.0,10.0,28,0.00,,,0.00,230.000000,,2013-03-13 22:32:00,
2013-03-13 14:42:00,29.0,0.0,-100.00,North,8,4.0,10.0,28,0.00,,,0.00,230.000000,,2013-03-13 22:42:00,
2013-03-13 15:12:00,28.0,-1.0,-100.00,North,7,3.0,9.0,28,0.00,,,0.00,116.000000,,2013-03-13 23:12:00,
2013-03-13 15:22:00,28.0,-1.0,-100.00,North,7,3.0,9.0,28,0.00,,,0.00,116.000000,,2013-03-13 23:22:00,
2013-03-13 15:32:00,28.0,-1.0,-100.00,North,7,3.0,9.0,28,0.00,,,0.00,116.000000,,2013-03-13 23:32:00,
2013-03-13 15:42:00,28.0,-1.0,-100.00,North,7,3.0,9.0,28,0.00,,,0.00,116.000000,,2013-03-13 23:42:00,
2013-03-13 15:51:00,28.0,-1.0,-100.00,North,7,3.0,9.0,28,0.00,,,0.00,116.000000,,2013-03-13 23:51:00,
2013-03-13 15:52:00,30.0,2.0,-100.00,NW,326,3.0,7.0,30,0.00,,,0.00,266.000000,,2013-03-13 23:52:00,
2013-03-13 16:22:00,30.0,2.0,-100.00,NW,326,3.0,7.0,30,0.00,,,0.00,266.000000,,2013-03-14 00:22:00,
2013-03-13 16:32:00,30.0,2.0,-100.00,NW,326,3.0,7.0,30,0.00,,,0.00,266.000000,,2013-03-14 00:32:00,
2013-03-13 16:42:00,30.0,2.0,-100.00,NW,326,3.0,7.0,30,0.00,,,0.00,266.000000,,2013-03-14 00:42:00,
2013-03-13 16:52:00,28.0,2.0,-100.00,NNE,23,2.0,7.0,32,0.00,,,0.00,148.000000,,2013-03-14 00:52:00,
2013-03-13 17:22:00,28.0,2.0,-100.00,NNE,23,2.0,7.0,32,0.00,,,0.00,148.000000,,2013-03-14 01:22:00,
2013-03-13 17:32:00,28.0,2.0,-100.00,NNE,23,2.0,7.0,32,0.00,,,0.00,148.000000,,2013-03-14 01:32:00,
2013-03-13 17:42:00,28.0,2.0,-100.00,NNE,23,2.0,7.0,32,0.00,,,0.00,148.000000,,2013-03-14 01:42:00,
2013-03-13 18:22:00,27.0,4.0,-100.00,NNE,25,4.0,8.0,36,0.00,,,0.00,54.000000,,2013-03-14 02:22:00,
2013-03-13 18:32:00,27.0,4.0,-100.00,NNE,25,4.0,8.0,36,0.00,,,0.00,54.000000,,2013-03-14 02:32:00,
2013-03-13 18:42:00,27.0,4.0,-100.00,NNE,25,4.0,8.0,36,0.00,,,0.00,54.000000,,2013-03-14 02:42:00,
2013-03-13 18:51:00,27.0,4.0,-100.00,NNE,25,4.0,8.0,36,0.00,,,0.00,54.000000,,2013-03-14 02:51:00,
2013-03-13 18:52:00,26.0,4.0,-100.00,North,11,2.0,7.0,38,0.00,,,0.00,33.000000,,2013-03-14 02:52:00,
2013-03-13 19:12:00,26.0,4.0,-100.00,North,11,2.0,7.0,38,0.00,,,0.00,33.000000,,2013-03-14 03:12:00,
2013-03-13 19:22:00,26.0,4.0,-100.00,North,11,2.0,7.0,38,0.00,,,0.00,33.000000,,2013-03-14 03:22:00,
2013-03-13 19:32:00,26.0,4.0,-100.00,North,11,2.0,7.0,38,0.00,,,0.00,33.000000,,2013-03-14 03:32:00,
2013-03-13 19:42:00,26.0,4.0,-100.00,North,11,2.0,7.0,38,0.00,,,0.00,33.000000,,2013-03-14 03:42:00,
2013-03-13 19:52:00,22.0,5.0,-100.00,NNW,344,1.0,5.0,48,0.00,,,0.00,18.000000,,2013-03-14 03:52:00,
2013-03-13 20:22:00,22.0,5.0,-100.00,NNW,344,1.0,5.0,48,0.00,,,0.00,18.000000,,2013-03-14 04:22:00,
2013-03-13 20:32:00,22.0,5.0,-100.00,NNW,344,1.0,5.0,48,0.00,,,0.00,18.000000,,2013-03-14 04:32:00,
2013-03-13 20:42:00,22.0,5.0,-100.00,NNW,344,1.0,5.0,48,0.00,,,0.00,18.000000,,2013-03-14 04:42:00,
2013-03-13 21:22:00,17.0,0.0,-100.00,North,356,1.0,5.0,46,0.00,,,0.00,2.000000,,2013-03-14 05:22:00,
2013-03-13 21:33:00,17.0,0.0,-100.00,North,356,1.0,5.0,46,0.00,,,0.00,2.000000,,2013-03-14 05:33:00,
2013-03-13 22:12:00,12.0,-1.0,-100.00,WNW,294,0.0,3.0,54,-99.99,,,0.00,0.000000,,2013-03-14 06:12:00,
2013-03-13 22:22:00,12.0,-1.0,-100.00,WNW,294,0.0,3.0,54,-99.99,,,0.00,0.000000,,2013-03-14 06:22:00,
2013-03-13 23:22:00,10.0,2.0,-100.00,East,85,0.0,1.0,68,-99.99,,,0.00,0.000000,,2013-03-14 07:22:00,